Portada
METAR-TAF:

METAR-TAF

Aeroports :

Sapporo, Japó

latitud: 43-07N, longitud: 141-23E, altitud: 8 m

Observació

L'informe es va fer fa 46 minuts, a les 22:00 UTC
Vent 12 kt del Sud-Est
Temperatura 6°C
Humitat 70%
Pressió 1026 hPa
Visibilitat 10 km o més
Escasses núvols a una alçada de 5000 ft
Cel ennuvolat a una alçada de 23000 ft

METAR: RJCO 152200Z 14012KT 9999 FEW050 BKN230 06/01 Q1026

Hora: 07:46 (22:46 UTC)


TAF: manca

Observacions i pronòstics meteorològics de més de 4000 aeroports (METAR i TAF).

Les estacions disponibles són els punts grocs i vermells al mapa.

Posi el ratolí al punt desitjat per veure el nom de l'estació.

Feu clic per veure les observacions i els pronòstics meteorològics.

Per canviar el mapa: feu clic els botons verds amb una creu de color negre per apropar; al botó verd amb un guió per allunyar la imatge; o en les fletxes verdes per a mapes adjacents.


METAR-TAF: